This is the latest recevied weather packets stored in our database for station/object K1BES. If no packets are shown the sender has not sent any weather packets the latest 10 day(s).
| Time | Temp. | Humidity | Pressure | Rain* | Wind** | Luminosity | Snow |
|---|---|---|---|---|---|---|---|
| 1777576770 | 28.33° C | 73% | 1014.3 hPa | 0 mm | - | 892 W/m² | - |
| 1777576470 | 28.33° C | 74% | 1014.4 hPa | 0 mm | - | 945 W/m² | - |
| 1777576167 | 28.89° C | 74% | 1014.4 hPa | 0 mm | - | 920 W/m² | - |
| 1777575867 | 28.89° C | 73% | 1014.5 hPa | 0 mm | - | 934 W/m² | - |
| 1777575564 | 28.89° C | 72% | 1014.5 hPa | 0 mm | - | 949 W/m² | - |
| 1777575260 | 28.89° C | 73% | 1014.3 hPa | 0 mm | - | 956 W/m² | - |
| 1777574956 | 28.89° C | 72% | 1014.8 hPa | 0 mm | - | 964 W/m² | - |
| 1777574652 | 28.89° C | 74% | 1014.9 hPa | 0 mm | - | 971 W/m² | - |
| 1777574349 | 28.89° C | 75% | 1014.8 hPa | 0 mm | - | 981 W/m² | - |
| 1777574044 | 28.89° C | 73% | 1014.5 hPa | 0 mm | - | 987 W/m² | - |
| 1777573739 | 28.89° C | 73% | 1014.7 hPa | 0 mm | - | 1000 W/m² | - |
| 1777573435 | 28.89° C | 73% | 1014.5 hPa | 0 mm | - | 1010 W/m² | - |
| 1777573131 | 28.89° C | 74% | 1014.8 hPa | 0 mm | - | 1012 W/m² | - |
| 1777572828 | 28.89° C | 73% | 1014.8 hPa | 0 mm | - | 863 W/m² | - |
| 1777572524 | 28.89° C | 73% | 1014.6 hPa | 0 mm | - | 1028 W/m² | - |
| 1777572219 | 28.89° C | 73% | 1015 hPa | 0 mm | - | 1040 W/m² | - |
| 1777571915 | 28.89° C | 72% | 1014.8 hPa | 0 mm | - | 1038 W/m² | - |
| 1777571610 | 28.33° C | 72% | 1015 hPa | 0 mm | - | 1039 W/m² | - |
| 1777571308 | 28.89° C | 70% | 1015 hPa | 0 mm | - | 1043 W/m² | - |
| 1777571004 | 28.89° C | 74% | 1015 hPa | 0 mm | - | 1045 W/m² | - |
| 1777570700 | 28.89° C | 73% | 1015.2 hPa | 0 mm | - | 1047 W/m² | - |
| 1777570397 | 28.89° C | 74% | 1015.1 hPa | 0 mm | - | 1046 W/m² | - |
| 1777570092 | 28.33° C | 74% | 1015 hPa | 0 mm | - | 1049 W/m² | - |
| 1777569789 | 28.89° C | 73% | 1014.9 hPa | 0 mm | - | 1051 W/m² | - |
| 1777569484 | 28.33° C | 74% | 1015 hPa | 0 mm | - | 1053 W/m² | - |
* Rain latest hour (hover to see other rain measurements)
** Current wind speed in m/s (hover to see current wind gust speed)